Printer-friendly version

IAU Minor Planet Center

Minor Planet Center

MPEC 2004-F27 : 2004 FG1

The following Minor Planet Electronic Circular may be linked-to from your own Web pages, but must not otherwise be redistributed electronically.


Read MPEC 2004-F26 Read MPEC 2004-F28


M.P.E.C. 2004-F27                                Issued 2004 Mar. 18, 16:57 UT

     The Minor Planet Electronic Circulars contain information on unusual
         minor planets and routine data on comets.  They are published
   on behalf of Commission 20 of the International Astronomical Union by the
          Minor Planet Center, Smithsonian Astrophysical Observatory,
                          Cambridge, MA 02138, U.S.A.

         Supported in part by the Steven and Michele Kirsch Foundation
             Prepared using the Tamkin Foundation Computer Network

                              MPC@CFA.HARVARD.EDU
          URL http://cfa-www.harvard.edu/iau/mpc.html  ISSN 1523-6714

                                   2004 FG1

Observations:
     K04F01G* C2004 03 17.17381 08 37 40.94 -11 46 39.6          19.2   EF027704
     K04F01G  C2004 03 17.18521 08 37 41.19 -11 46 04.7          19.6   EF027704
     K04F01G  C2004 03 17.19618 08 37 41.47 -11 45 32.7          19.6   EF027704
     K04F01G  C2004 03 17.20711 08 37 41.79 -11 44 58.3          20.0   EF027704
     K04F01G  C2004 03 17.21840 08 37 42.08 -11 44 23.2          19.4   EF027704
     K04F01G 5C2004 03 18.16847 08 38 15.75 -10 55 49.1          19.8 R EF027673
     K04F01G 5C2004 03 18.17326 08 38 15.88 -10 55 34.2                 EF027673
     K04F01G 5C2004 03 18.17895 08 38 16.07 -10 55 17.2                 EF027673
     K04F01G 5C2004 03 18.18160 08 38 16.14 -10 55 08.8                 EF027673
     K04F01G  C2004 03 18.21897 08 38 17.16 -10 53 13.0          20.2 R EF027651
     K04F01G  C2004 03 18.22117 08 38 17.20 -10 53 06.3          19.8 R EF027651
     K04F01G  C2004 03 18.22281 08 38 17.34 -10 53 00.9          19.6 R EF027651
     K04F01G  C2004 03 18.23065 08 38 17.38 -10 52 37.8          19.4 R EF027448
     K04F01G  C2004 03 18.23535 08 38 17.42 -10 52 24.2          19.7 R EF027649
     K04F01G  C2004 03 18.23712 08 38 17.44 -10 52 18.4          19.6 R EF027649
     K04F01G  C2004 03 18.23762 08 38 17.59 -10 52 15.6          19.3 R EF027448
     K04F01G  C2004 03 18.23889 08 38 17.50 -10 52 12.8          19.5 R EF027649
     K04F01G  C2004 03 18.25127 08 38 18.01 -10 51 33.4          20.4 R EF027448

Observer details:
448 Desert Moon Observatory.  Observer B. L. Stevens.  0.3-m
    Schmidt-Cassegrain + CCD.
649 Powell Observatory, Louisburg.  Observer R. Fredrick.  0.75-m Newtonian
    + CCD.
651 Grasslands Observatory, Tucson.  Observer J. E. McGaha.  0.62-m f/5.1
    Newtonian + CCD.
673 Table Mountain Observatory, Wrightwood.  Observer J. Young.  0.6-m
    reflector + CCD.
704 Lincoln Laboratory ETS, New Mexico.  Observers M. Blythe, F. Shelly,
    M. Bezpalko, R. Huber, L. Manguso, D. Torres, R. Kracke, M. McCleary,
    H. Stange, A. Milner.  Measurers J. Stuart, R. Sayer, J. Evans, J. Kommers.
    1.0-m f/2.15 reflector + CCD.

Orbital elements:
2004 FG1
Epoch 2004 Mar. 16.0 TT = JDT 2453080.5                 MPC
M 327.13152              (2000.0)            P               Q
n   0.49604372     Peri.   23.58542     -0.85347080     +0.51801079
a   1.5804815      Node   188.33395     -0.51842100     -0.85508321
e   0.2061083      Incl.   23.17030     -0.05317192     +0.02230515
P   1.99           H   19.8           G   0.15
From 18 observations 2004 Mar. 17-18.

Ephemeris:
2004 FG1                 a,e,i = 1.58, 0.21, 23                  q = 1.2547
Date    TT    R. A. (2000) Decl.     Delta      r     Elong.  Phase     V
2004 03 16    08 37.08   -12 46.0    0.447    1.333   131.4    34.1    20.1
2004 03 26    08 45.06   -04 10.4    0.448    1.312   126.2    37.9    20.2
2004 04 05    08 59.27   +04 07.5    0.463    1.294   119.8    42.1    20.3
2004 04 15    09 18.85   +11 23.1    0.492    1.280   113.2    46.1    20.5
2004 04 25    09 42.81   +17 12.8    0.530    1.268   107.1    49.3    20.8
2004 05 05    10 10.03   +21 31.0    0.576    1.260   101.9    51.6    21.0
2004 05 15    10 39.34   +24 23.7    0.625    1.255    97.4    53.0    21.2
2004 05 25    11 09.84   +26 00.9    0.677    1.255    93.8    53.6    21.4
2004 06 04    11 40.78   +26 33.7    0.730    1.258    90.8    53.7    21.6
2004 06 14    12 11.57   +26 13.1    0.783    1.266    88.4    53.4    21.7
2004 06 24    12 41.95   +25 07.8    0.836    1.276    86.5    52.7    21.9
2004 07 04    13 11.79   +23 26.4    0.888    1.290    85.0    51.7    22.0

Kyle E. Smalley              (C) Copyright 2004 MPC           M.P.E.C. 2004-F27

Read MPEC 2004-F26 Read MPEC 2004-F28


Our Web policy. Index to the CBAT/MPC/ICQ pages.


Valid HTML 4.01!